Weather History for Gulkana, AK

Change the Weather History Date:

Tuesday, May 21, 2013

  Actual Average Record
Temperature  
Mean Temperature 42 °F -  
Max Temperature 57 °F 58 °F 75 °F (2002)
Min Temperature 26 °F 34 °F 21 °F (1964)
Degree Days  
Heating Degree Days 24    
Moisture  
Dew Point 15 °F    
Average Humidity 33    
Maximum Humidity 63    
Minimum Humidity 9    
Precipitation  
Precipitation 0.00 in - - ()
Sea Level Pressure  
Sea Level Pressure 30.38 in    
Wind  
Wind Speed 6 mph (North)    
Max Wind Speed 13 mph    
Max Gust Speed -    
Visibility 10 miles    
Events      
Averages and records for this station are not official NWS values.
T = Trace of Precipitation, MM = Missing Value Source: NWS Daily Summary

Daily Weather History Graph

Daily Weather History Graph

Search for Another Location

Airport:

Trip Planner

Search our weather history database for the weather conditions in past years. The results will help you decide how hot, cold, wet, or windy it might be!

Date:

Astronomy

May. 21, 2013 Rise Set
Actual Time 4:29 AM AKDT 10:48 PM AKDT
Civil Twilight 2:59 AM AKDT 12:21 AM AKDT
Nautical Twilight Sun does not rise Sun does not rise
Astronomical Twilight Sun does not rise Sun does not rise
Moon 6:05 PM AKDT (5/21) 3:23 AM AKDT (5/21)
Length of Visible Light 21h 22m
Length of Day
18h 18m
Waxing Gibbous, 85% of the Moon is Illuminated
May 21
Waxing Gibbous
May 24
Full
May 31
Last Quarter
Jun 8
New
Jun 16
First Quarter

Hourly Weather History & Observations

Time (AKDT) Temp. Windchill Dew Point Humidity Pressure Visibility Wind Dir Wind Speed Gust Speed Precip Events Conditions
12:53 AM 34.0 °F 29.8 °F 16.0 °F 48% 30.53 in 10.0 mi NNE 4.6 mph - N/A   Clear
1:53 AM 30.9 °F 24.3 °F 16.0 °F 54% 30.52 in 10.0 mi North 6.9 mph - N/A   Clear
2:53 AM 27.0 °F 18.0 °F 15.1 °F 61% 30.53 in 10.0 mi North 9.2 mph - N/A   Clear
3:53 AM 27.0 °F 19.5 °F 16.0 °F 63% 30.53 in 10.0 mi North 6.9 mph - N/A   Clear
4:53 AM 26.1 °F 20.5 °F 15.1 °F 63% 30.53 in 10.0 mi NW 4.6 mph - N/A   Clear
5:53 AM 28.0 °F 22.8 °F 15.1 °F 58% 30.53 in 10.0 mi NNW 4.6 mph - N/A   Scattered Clouds
6:53 AM 32.0 °F 28.7 °F 14.0 °F 48% 30.52 in 10.0 mi North 3.5 mph - N/A   Scattered Clouds
7:53 AM 35.1 °F - 12.9 °F 40% 30.51 in 10.0 mi Calm Calm - N/A   Scattered Clouds
8:53 AM 39.0 °F - 12.0 °F 33% 30.48 in 10.0 mi Calm Calm - N/A   Clear
9:53 AM 44.1 °F - 12.0 °F 27% 30.45 in 10.0 mi Calm Calm - N/A   Clear
10:53 AM 46.9 °F - 14.0 °F 27% 30.44 in 10.0 mi Variable 3.5 mph - N/A   Scattered Clouds
11:53 AM 48.0 °F - 14.0 °F 26% 30.42 in 10.0 mi ENE 6.9 mph - N/A   Scattered Clouds
12:53 PM 51.1 °F - 12.9 °F 22% 30.40 in 10.0 mi Variable 6.9 mph - N/A   Scattered Clouds
1:53 PM 53.1 °F - 12.9 °F 20% 30.38 in 10.0 mi NE 3.5 mph - N/A   Scattered Clouds
2:53 PM 54.0 °F - 12.9 °F 20% 30.36 in 10.0 mi North 12.7 mph - N/A   Scattered Clouds
3:53 PM 55.0 °F - 12.9 °F 19% 30.33 in 10.0 mi North - - N/A   Scattered Clouds
4:53 PM 55.9 °F - 15.1 °F 20% 30.31 in 10.0 mi Variable 6.9 mph - N/A   Partly Cloudy
5:53 PM 55.9 °F - 15.1 °F 20% 30.28 in 10.0 mi North 6.9 mph - N/A   Partly Cloudy
6:53 PM 55.9 °F - 16.0 °F 21% 30.26 in 10.0 mi North 10.4 mph - N/A   Partly Cloudy
7:53 PM 55.9 °F - 15.1 °F 20% 30.23 in 10.0 mi North 4.6 mph - N/A   Partly Cloudy
8:53 PM 53.1 °F - 16.0 °F 23% 30.23 in 10.0 mi NNE 8.1 mph - N/A   Partly Cloudy
9:25 PM 51.1 °F - 17.1 °F 26% 30.18 in 10.0 mi NNE 6.9 mph - N/A   Partly Cloudy
9:53 PM 48.9 °F - 17.1 °F 28% 30.22 in 10.0 mi NNE 5.8 mph - N/A   Clear
10:53 PM 43.0 °F 38.2 °F 17.1 °F 35% 30.22 in 10.0 mi North 8.1 mph - N/A   Clear
11:53 PM 39.9 °F 34.5 °F 18.0 °F 41% 30.22 in 10.0 mi North 8.1 mph - N/A   Clear